Regional Weather Roundup
Issued by NWS

Home | Current Version | Previous Version | Graphics & Text | Print | Product List | Glossary On
Versions: 1 2 3 4 5 6 7 8 9 10 11 12 13 14 15 16 17 18 19 20 21 22 23 24 25 26 27 28 29 30 31 32 33 34 35 36 37 38 39 40 41 42 43 44 45 46 47 48 49 50
000
ASUS43 KFSD 290810
RWRSD

WEATHER ROUNDUP FOR SOUTH DAKOTA
NATIONAL WEATHER SERVICE SIOUX FALLS SD
300 AM CDT TUE JUL 29 2014

NOTE: "FAIR" INDICATES FEW OR NO CLOUDS BELOW 12,000 FEET WITH NO
SIGNIFICANT WEATHER AND/OR OBSTRUCTIONS TO VISIBILITY.


SDZ001>005-009-010-012>017-290900-
NORTHWEST AND NORTH CENTRAL SOUTH DAKOTA

CITY           SKY/WX    TMP DP  RH WIND       PRES   REMARKS
BUFFALO          N/A     60  51  72 SE7       30.20F
FAITH            N/A     61  50  67 SE10      30.24F
MOBRIDGE       CLEAR     56  52  86 SE6       30.22S
$$

SDZ012>016-024>037-041>051-057-063-072>074-290900-
SOUTHWEST AND SOUTH CENTRAL SOUTH DAKOTA

CITY           SKY/WX    TMP DP  RH WIND       PRES   REMARKS
RAPID CTY ARPT CLEAR     53  49  86 CALM      30.28S
PIERRE         PTCLDY    54  51  90 E6        30.22S
CUSTER         CLEAR     54  47  77 NE7       30.36F
ELLSWORTH AFB  CLEAR     60  51  70 SE3       30.28S
PHILIP         CLEAR     58  49  72 NE5       30.24F
PINE RIDGE     MOCLDY    64  52  64 E8        30.24F
WINNER         FAIR      60  50  69 S8        30.23F
$$

SDZ004>011-016>023-039-040-290900-
NORTHEAST SOUTH DAKOTA

CITY           SKY/WX    TMP DP  RH WIND       PRES   REMARKS
ABERDEEN       CLEAR     49  49 100 CALM      30.22F
WATERTOWN      CLEAR     52  49  89 CALM      30.22S
SISSETON         N/A     53  52  96 NW3       30.19F
$$

SDZ017-020-022-023-036>040-048>070-290900-
SOUTHEAST SOUTH DAKOTA

CITY           SKY/WX    TMP DP  RH WIND       PRES   REMARKS
SIOUX FALLS    CLEAR     53  52  96 CALM      30.22S
HURON          CLOUDY    53  51  93 CALM      30.22S
CHAMBERLAIN    CLEAR     55  51  85 E3        30.24S
MITCHELL       CLEAR     54  51  90 NW3       30.22F
YANKTON        CLEAR     57  52  82 CALM      30.22S
$$

ABBREVIATIONS USED IN REMARKS
   TC - TEMPERATURE IN CELSIUS
  WCI - WIND CHILL INDEX
   HX - HEAT INDEX
  VSB - VISIBILITY



USA.gov is the U.S. government's official web portal to all federal, state and local government web resources and services.